COSMOS 249 DEB, 6752

Orbit data source: Space-Track

COSMOS 249 DEB, 6752 is space debris in LEO originally from a launch on Sun, 20 Oct 1968 UTC launched from the Tyuratam Missile And Space Complex (TTMTR). Debris objects in space refer to the collection of defunct objects orbiting the Earth. Examples of debris include non-operational satellites, rocket bodies, and fragments generated from explosions, collisions, or faulty payload assembly.

Loading next visibility...
Identifier
6752, 1968-091CJ
Orbit
LEO
Country
Flag of CISCIS
Related business
Manufacturer
Unknown
Mission
Spacecraft
Bus & Motor
Unknown
Mass
Unknown
Launch date (UTC)
1968-10-20 (57 years ago)
Launch vehicle
Unknown
Launch site
Tyuratam Missile And Space Complex (TTMTR)
Object type
Payload
Rocket body
Debris
Shape & HBR
Unknown shape, 0.1 m
Radar Cross Section
Small (<0.1 m²)

Expand to show TLE details & history
Last TLE update: 13 hours ago

TLE from 13 hours ago
0 COSMOS 249 DEB
1 06752U 68091CJ  25286.73649435  .00002970  00000-0  26266-2 0  9990
2 06752  62.2759  49.4621 0658229  85.5559 282.0296 13.16044106626816
Epoch: 2025-10-13T17:40Z
TLE epoch observation values (Epoch: 2025-10-13T17:40:33.111Z)
Latitude
-0.00006°
Longitude
121.78912°
Altitude
1,129.528 km
Speed
7.323 km/s
True Right ascension
03h 17m 50s
True Declination
0° 00' 00"
Sunlit
Object was in full shadow at epoch
Visualization orbit readout
Latitude
Unknown
Longitude
Unknown
Altitude
Unknown
Speed
Unknown
Apparent Right ascension
Unknown
Apparent Declination
Unknown
Sunlit
N/A
Visualization observer readout
Local Sidereal Time
01:23:03
Azimuth
Unknown
Elevation
Unknown
Doppler factor
Unknown
Orbital elements
Apogee altitude
1,697.586 km
Perigee altitude
700.108 km
Semi-major axis
7,576.984 km
Eccentricity
0.06582
Inclination
62.2759°
RAAN
49.4621°
Arg. of periapsis
85.5559°
True anomaly
274.54525°
Mean anomaly
282.0296°
Eccentric anomaly
278.29771°
Mean motion
3.29078 °/min
Orbital period
109.4 mins
BSTAR
0.0026266
Loading maneuver chart data...
Computing Atmospheric mass density...
Loading historical data...
Loading historical data...
Loading historical data...
Loading historical data...
Loading historical data...
Loading historical data...
Loading historical data...

Documentation

Showing up to 5 results
|